Probability
0 0 0 0 0 0 0 0 0 0 0 0 3 10 23 26 32 29 29 29 32 29 26 26 19 26 26 26 23 13 10 10 13 6 6 10 6 6 6 6 10 6 6 6
0 0 0 0 0 0 0 0 0 0 0 0 3 13 23 32 48 32 29 26 26 26 23 19 16 16 13 13 19 13 16 10 6 6 10 10 10 6 6 6 6 3 6 6
0 0 0 0 0 3 6 6 0 0 0 3 13 13 23 32 35 32 26 26 23 26 19 13 13 10 19 16 13 13 13 13 10 6 6 6 6 6 6 3 3 3 3 3
0 0 0 0 0 3 6 6 3 3 0 3 10 13 10 13 26 26 29 29 29 29 19 16 13 13 10 16 10 13 13 10 6 6 6 6 6 6 3 3 3 3 3 0
0 0 0 0 0 3 3 6 6 3 3 3 13 13 16 13 13 13 19 16 23 16 16 16 13 6 3 3 6 10 6 6 6 6 6 6 6 3 3 3 3 3 0 0
0 0 0 0 0 0 0 0 3 6 3 10 13 16 13 19 13 16 16 13 10 10 13 10 3 0 0 0 0 10 6 6 6 6 6 6 3 3 3 3 3 0 0 0
0 0 0 0 0 0 0 0 3 3 6 6 3 0 6 19 16 16 13 10 13 10 10 6 3 3 3 3 3 3 3 10 6 6 6 6 3 3 0 0 0 0 0 0
0 0 0 0 0 0 0 0 3 3 0 6 6 13 16 16 13 16 10 6 6 6 6 0 0 3 3 6 3 3 3 6 3 3 3 3 3 0 0 0 0 0 0 0
0 0 0 0 0 0 0 3 3 3 3 6 13 16 16 16 10 10 10 10 6 3 3 0 0 0 0 0 0 0 0 0 0 0 0 0 0 0 0 0 0 0 0 0
0 0 0 0 3 3 6 3 3 6 10 10 16 16 13 6 10 10 10 10 3 3 3 0 0 0 0 0 0 0 0 0 0 0 0 0 0 0 0 0 0 0 0 0
0 0 0 0 3 3 3 3 10 6 6 13 13 10 10 10 10 10 10 6 3 3 0 0 0 0 0 0 0 0 0 0 0 0 0 0 0 0 0 0 0 0 0 0
0 0 0 0 0 3 3 6 6 3 3 6 6 10 3 3 3 6 3 6 6 3 0 0 0 0 0 0 0 0 0 0 0 0 0 0 0 0 0 0 0 0 0 0
0 0 0 0 0 0 0 0 0 0 3 3 0 3 3 3 3 3 3 3 3 0 0 0 0 0 0 0 0 0 0 0 0 0 0 0 0 0 0 0 0 0 0 0
0 0 0 0 0 0 0 0 0 0 0 0 0 3 3 3 3 3 3 0 0 0 0 0 0 0 0 0 0 0 0 0 0 0 0 0 0 0 0 0 0 0 0 0
0 0 0 0 0 0 0 0 0 0 0 0 0 3 3 3 0 0 0 0 0 0 0 0 0 0 0 0 0 0 0 0 0 0 0 0 0 0 0 0 0 0 0 0
0 0 0 0 0 0 0 0 0 0 0 0 0 0 0 0 0 0 0 0 0 0 0 0 0 0 0 0 0 0 0 0 0 0 0 0 0 0 0 0 0 0 0 0
0 0 0 0 0 0 0 0 0 0 0 0 0 0 0 0 0 0 0 0 0 0 0 0 0 0 0 0 0 0 0 0 0 0 0 0 0 0 0 0 0 0 0 0
0 0 0 0 0 0 0 0 0 0 0 0 0 0 0 0 0 0 0 0 0 0 0 0 0 0 0 0 0 0 0 0 0 0 0 0 0 0 0 0 0 0 0 0
0 0 0 0 0 0 0 0 0 0 0 0 0 0 0 0 0 0 0 0 0 0 0 0 0 0 0 0 0 0 0 0 0 0 0 0 0 0 0 0 0 0 0 0
0 0 0 0 0 0 0 0 0 0 0 0 0 0 0 0 0 0 0 0 0 0 0 0 0 0 0 0 0 0 0 0 0 0 0 0 0 0 0 0 0 0 0 0
0 0 0 0 0 0 0 0 0 0 0 0 0 0 0 0 0 0 0 0 0 0 0 0 0 0 0 0 0 0 0 0 0 0 0 0 0 0 0 0 0 0 0 0
0 0 0 0 0 0 0 0 0 0 0 0 0 0 0 0 0 0 0 0 0 0 0 0 0 0 0 0 0 0 0 0 0 0 0 0 0 0 0 0 0 0 0 0
0 0 0 0 0 0 0 0 0 0 0 0 0 0 0 0 0 0 0 0 0 0 0 0 0 0 0 0 0 0 0 0 0 0 0 0 0 0 0 0 0 0 0 0
0 0 0 0 0 0 0 0 0 0 0 0 0 0 0 0 0 0 0 0 0 0 0 0 0 0 0 0 0 0 0 0 0 0 0 0 0 0 0 0 0 0 0 0
0 0 0 0 0 0 0 0 0 0 0 0 0 0 0 0 0 0 0 0 0 0 0 0 0 0 0 0 0 0 0 0 0 0 0 0 0 0 0 0 0 0 0 0
0 0 0 0 0 0 0 0 0 0 0 0 0 0 0 0 0 0 0 0 0 0 0 0 0 0 0 0 0 0 0 0 0 0 0 0 0 0 0 0 0 0 0 0
0 0 0 0 0 0 0 0 0 0 0 0 0 0 0 0 0 0 0 0 0 0 0 0 0 0 0 0 0 0 0 0 0 0 0 0 0 0 0 0 0 0 0 0
Height
5825 5829 5832 5836 5840 5843 5846 5849 5851 5854 5857 5859 5861 5862 5863 5864 5865 5865 5866 5865 5865 5864 5863 5862 5861 5860 5859 5858 5856 5855 5854 5852 5852 5852 5852 5851 5851 5850 5850 5849 5848 5847 5847 5846
5819 5823 5827 5830 5834 5838 5841 5843 5846 5849 5852 5855 5856 5858 5859 5861 5862 5862 5862 5862 5861 5861 5860 5859 5858 5858 5856 5855 5854 5853 5851 5849 5849 5849 5849 5849 5848 5848 5847 5846 5845 5844 5843 5843
5814 5818 5821 5825 5829 5833 5836 5839 5842 5845 5848 5850 5852 5854 5855 5856 5858 5858 5859 5859 5858 5858 5857 5856 5856 5855 5854 5853 5851 5850 5848 5846 5846 5847 5847 5846 5845 5845 5844 5843 5841 5840 5840 5839
5808 5813 5816 5823 5825 5828 5831 5834 5837 5840 5843 5845 5847 5849 5851 5852 5853 5854 5855 5855 5854 5853 5853 5853 5852 5851 5851 5850 5849 5848 5846 5845 5845 5845 5844 5844 5843 5842 5841 5840 5839 5837 5836 5835
5803 5806 5811 5816 5819 5823 5826 5829 5832 5835 5838 5840 5842 5844 5846 5847 5849 5850 5850 5850 5849 5849 5849 5848 5848 5847 5847 5847 5846 5845 5844 5844 5843 5842 5842 5841 5840 5839 5838 5837 5836 5834 5833 5831
5797 5801 5805 5811 5814 5817 5822 5824 5828 5830 5833 5835 5837 5840 5842 5843 5844 5845 5845 5845 5844 5844 5844 5844 5844 5843 5843 5843 5843 5842 5842 5841 5840 5840 5839 5839 5837 5836 5835 5834 5833 5832 5830 5828
5790 5794 5799 5804 5808 5812 5817 5820 5823 5824 5827 5830 5832 5835 5837 5838 5839 5840 5840 5840 5840 5839 5839 5840 5839 5839 5840 5840 5840 5839 5838 5838 5837 5837 5836 5835 5834 5833 5832 5831 5830 5828 5827 5825
5783 5788 5795 5798 5801 5806 5809 5813 5816 5819 5822 5824 5827 5828 5830 5832 5833 5835 5835 5835 5835 5834 5834 5834 5835 5835 5835 5836 5836 5836 5835 5834 5833 5833 5832 5831 5831 5830 5829 5827 5826 5824 5823 5822
5778 5784 5787 5791 5794 5798 5802 5806 5809 5813 5816 5818 5821 5822 5824 5826 5828 5829 5829 5830 5830 5830 5829 5829 5829 5830 5831 5832 5832 5831 5831 5830 5829 5829 5828 5827 5826 5825 5824 5823 5822 5820 5819 5818
5770 5775 5779 5783 5786 5790 5795 5798 5802 5806 5809 5812 5814 5816 5818 5820 5821 5822 5823 5824 5824 5825 5825 5825 5825 5826 5827 5827 5827 5827 5826 5826 5825 5824 5824 5823 5822 5821 5820 5818 5817 5816 5815 5813
5762 5767 5772 5776 5779 5783 5787 5791 5795 5799 5802 5805 5808 5810 5812 5814 5815 5817 5818 5819 5820 5820 5821 5821 5821 5822 5823 5823 5822 5822 5822 5821 5820 5820 5819 5818 5817 5816 5815 5813 5812 5811 5809 5808
5755 5760 5764 5769 5772 5776 5781 5784 5788 5792 5795 5798 5801 5803 5806 5808 5809 5811 5812 5813 5814 5815 5816 5817 5817 5818 5818 5818 5818 5817 5817 5816 5815 5815 5814 5813 5812 5811 5809 5808 5807 5805 5804 5802
5748 5752 5757 5761 5765 5769 5773 5777 5781 5784 5788 5791 5794 5796 5799 5801 5803 5805 5806 5807 5808 5810 5811 5812 5813 5813 5813 5813 5813 5813 5812 5811 5810 5809 5809 5808 5807 5805 5804 5803 5801 5800 5798 5796
5740 5745 5750 5754 5758 5762 5766 5770 5774 5778 5781 5784 5787 5789 5792 5794 5796 5798 5800 5801 5803 5804 5805 5806 5807 5807 5807 5808 5807 5807 5807 5806 5805 5804 5803 5802 5801 5800 5798 5797 5795 5793 5792 5790
5734 5738 5743 5747 5751 5756 5760 5764 5767 5771 5774 5777 5780 5782 5785 5787 5789 5791 5793 5795 5796 5798 5799 5800 5801 5802 5802 5802 5802 5801 5801 5800 5799 5798 5797 5796 5795 5793 5792 5790 5789 5787 5785 5783
5727 5732 5736 5740 5745 5749 5753 5757 5761 5764 5767 5770 5772 5775 5778 5780 5782 5785 5787 5789 5791 5792 5793 5794 5795 5796 5795 5795 5795 5795 5794 5794 5793 5792 5791 5790 5788 5787 5785 5784 5782 5780 5778 5776
5721 5726 5730 5735 5739 5743 5747 5751 5754 5757 5761 5763 5766 5769 5771 5774 5776 5778 5781 5783 5785 5786 5787 5788 5789 5789 5789 5789 5789 5788 5788 5787 5786 5785 5784 5783 5782 5780 5779 5777 5776 5774 5772 5769
5715 5720 5725 5729 5733 5737 5741 5744 5748 5751 5754 5757 5760 5762 5765 5768 5771 5773 5775 5777 5778 5780 5781 5782 5782 5782 5783 5783 5782 5782 5781 5781 5780 5779 5778 5777 5775 5774 5772 5770 5769 5767 5764 5762
5710 5715 5719 5724 5727 5731 5735 5738 5742 5745 5748 5751 5753 5756 5760 5763 5766 5768 5770 5771 5772 5774 5775 5775 5776 5776 5776 5776 5776 5776 5775 5774 5774 5773 5772 5770 5769 5767 5765 5763 5761 5759 5757 5755
5706 5710 5715 5719 5723 5726 5730 5733 5737 5740 5743 5746 5749 5752 5755 5758 5760 5762 5764 5765 5767 5768 5769 5770 5770 5770 5770 5770 5770 5769 5768 5768 5767 5766 5765 5763 5762 5760 5758 5756 5754 5752 5750 5747
5702 5706 5710 5714 5718 5722 5725 5729 5732 5735 5739 5742 5745 5748 5750 5753 5755 5757 5758 5760 5761 5762 5763 5763 5764 5764 5764 5764 5763 5763 5762 5761 5760 5759 5758 5757 5755 5753 5751 5749 5747 5745 5742 5739
5699 5703 5706 5711 5714 5718 5721 5725 5728 5732 5735 5738 5741 5743 5745 5747 5749 5751 5753 5754 5756 5756 5757 5757 5758 5758 5758 5757 5757 5757 5756 5755 5754 5753 5752 5750 5748 5746 5744 5742 5740 5737 5734 5731
5696 5700 5703 5707 5711 5714 5718 5722 5725 5728 5731 5734 5736 5739 5741 5743 5745 5746 5748 5749 5750 5751 5751 5752 5752 5752 5752 5752 5751 5750 5750 5749 5748 5746 5745 5743 5741 5739 5737 5735 5732 5730 5727 5724
5694 5697 5701 5705 5708 5712 5715 5719 5722 5725 5727 5730 5732 5734 5736 5738 5740 5741 5743 5744 5745 5746 5746 5747 5747 5747 5746 5745 5745 5744 5743 5742 5741 5740 5738 5736 5734 5732 5730 5727 5725 5722 5719 5716
5692 5696 5699 5702 5706 5710 5713 5716 5718 5721 5723 5726 5728 5730 5732 5734 5735 5737 5738 5739 5740 5741 5741 5741 5741 5741 5740 5740 5739 5738 5737 5736 5735 5733 5731 5729 5727 5725 5723 5720 5717 5715 5712 5709
5691 5694 5697 5701 5704 5707 5710 5712 5715 5717 5720 5722 5725 5727 5728 5730 5731 5733 5734 5735 5735 5736 5736 5735 5735 5735 5734 5734 5733 5732 5731 5730 5728 5726 5724 5722 5720 5718 5716 5713 5710 5708 5705 5701
5689 5692 5695 5699 5702 5705 5707 5710 5712 5715 5717 5720 5722 5723 5724 5726 5727 5728 5729 5730 5730 5730 5730 5730 5730 5729 5729 5728 5727 5726 5724 5723 5721 5719 5717 5715 5713 5711 5708 5706 5703 5700 5697 5694
Wind_Speed
28 27 28 27 27 27 27 26 24 21 20 18 17 16 16 15 14 13 13 13 13 13 12 12 11 11 11 11 11 11 11 11 11 10 10 10 10 11 12 13 13 13 13 14
29 29 29 28 27 27 26 26 25 23 21 19 17 16 16 16 15 14 14 13 12 12 11 12 11 12 12 12 11 12 12 11 11 11 10 10 10 11 12 13 14 14 14 14
30 29 30 30 28 27 26 25 25 24 22 21 19 18 17 16 16 15 14 13 13 12 12 12 13 13 13 12 12 11 10 10 10 9 9 10 10 11 12 12 13 13 14 15
30 30 32 29 28 27 27 26 25 24 22 21 20 18 17 16 16 16 15 15 14 14 14 14 14 14 13 13 13 11 10 9 9 9 10 11 11 12 12 13 13 13 12 13
31 32 31 29 28 28 27 27 25 24 22 22 21 20 19 17 17 17 16 15 15 16 16 15 14 14 13 13 12 11 10 10 10 11 11 11 12 12 13 13 12 11 12 12
33 32 33 30 29 28 28 27 25 25 24 23 22 21 19 18 18 18 17 17 17 16 16 16 15 13 12 12 12 11 11 11 11 12 12 13 13 13 12 12 12 13 13 13
35 34 33 31 30 29 29 27 25 25 25 24 23 21 20 20 20 19 18 17 17 17 17 17 15 13 13 12 13 13 13 12 13 13 13 13 13 13 13 14 14 15 15 15
37 36 35 32 32 31 30 28 27 26 25 25 24 23 22 20 20 19 18 18 17 17 16 16 16 14 14 14 13 14 14 13 13 14 14 14 15 15 15 15 16 16 17 17
38 37 35 34 34 32 31 30 28 26 25 25 24 24 23 22 21 20 20 20 18 17 17 17 15 15 15 14 14 14 14 14 15 15 16 16 16 17 17 18 18 18 19 19
39 38 36 35 34 33 32 31 29 27 26 25 24 24 23 23 22 22 21 20 17 17 17 16 16 15 15 15 15 15 15 15 16 17 17 17 17 17 18 19 19 19 20 20
39 37 36 34 34 33 32 31 31 30 28 26 25 25 25 24 23 23 22 21 20 19 17 16 16 15 16 16 16 16 16 16 16 17 18 18 19 19 19 19 20 20 20 21
37 36 35 34 33 32 32 31 30 30 28 27 25 25 26 25 25 24 23 21 20 19 18 18 17 16 16 17 17 16 16 16 17 18 18 19 19 19 19 19 20 21 21 22
36 35 34 33 32 31 30 30 30 29 28 27 27 26 25 25 25 25 23 22 21 20 20 19 18 18 18 18 17 17 17 17 17 18 18 19 19 19 20 20 21 22 23 23
33 33 32 31 31 30 29 29 29 29 28 28 27 27 26 26 26 26 24 23 22 21 21 20 19 19 19 19 18 18 18 19 19 19 20 20 20 21 21 22 23 23 24 25
30 30 30 30 29 28 28 28 28 28 27 28 28 27 26 26 26 25 24 23 22 21 20 21 20 20 20 20 20 20 20 20 20 20 21 22 22 22 23 23 24 25 25 26
30 28 27 27 27 26 26 26 27 28 27 27 27 26 25 24 25 25 24 22 21 21 21 21 21 20 20 20 20 21 21 21 22 22 22 23 22 22 23 23 24 24 25 26
28 27 27 26 26 26 25 25 25 26 26 26 27 26 25 24 23 22 21 20 20 21 21 21 21 21 21 21 21 21 21 21 22 22 22 22 22 23 23 24 25 25 26 27
26 26 26 26 26 26 25 24 25 25 25 25 26 26 24 23 22 21 20 20 20 20 21 20 21 21 21 21 21 21 22 22 22 22 22 22 23 24 24 25 25 26 27 28
24 25 24 25 25 24 24 23 23 23 24 23 22 21 21 21 20 20 20 20 20 20 20 20 21 21 21 21 21 22 22 22 22 22 23 23 23 24 24 25 26 26 27 28
23 22 23 23 23 23 22 21 21 21 21 20 20 20 20 21 21 20 20 20 20 19 19 21 21 21 21 21 22 22 21 21 22 22 23 23 23 24 24 25 26 27 28 28
22 22 22 22 21 21 21 21 21 20 20 20 20 19 19 19 19 19 19 18 18 18 19 20 20 19 20 20 20 20 20 21 21 22 23 23 24 24 25 26 27 28 28 29
20 21 21 22 21 20 20 19 19 19 19 18 18 18 18 19 18 18 18 18 18 19 19 19 19 19 19 19 19 20 20 21 21 22 23 23 24 25 25 26 27 27 28 29
19 19 19 20 19 19 19 18 18 18 18 17 17 17 18 18 18 18 18 18 19 18 18 18 18 19 19 20 20 20 20 21 22 22 23 24 25 25 26 27 27 28 29 29
18 18 19 19 19 19 18 17 17 17 16 16 16 16 16 17 17 18 18 17 17 17 17 18 19 19 19 19 20 20 21 22 22 22 23 24 24 25 26 26 27 27 28 28
17 17 17 17 18 18 18 17 17 17 16 15 15 15 16 16 16 16 17 17 17 17 17 18 18 19 19 19 20 21 22 22 23 23 24 24 24 25 25 25 26 27 27 27
16 16 16 16 16 17 17 16 16 15 15 15 15 15 15 15 15 16 16 17 17 17 17 17 18 19 20 20 21 21 23 23 24 24 24 24 24 24 25 25 26 27 27 27
16 15 15 15 15 15 15 14 14 14 13 14 14 14 15 15 16 16 16 16 16 16 17 17 18 19 19 20 20 22 22 23 23 23 24 24 24 25 25 26 26 27 27 28
Wind_Direction
223 225 228 231 234 238 242 246 249 252 252 252 252 255 259 260 264 273 279 286 291 292 294 298 300 303 299 298 302 304 303 301 294 288 287 286 284 284 283 284 287 284 280 279
222 224 227 230 233 237 241 244 247 249 250 252 252 254 258 259 262 270 278 285 290 289 289 294 297 300 298 295 300 301 299 295 292 289 290 289 287 290 288 288 287 283 286 282
224 225 228 231 234 238 241 244 246 248 250 252 253 256 260 260 260 267 272 278 285 285 288 292 293 296 296 294 299 300 296 290 288 284 285 290 290 291 292 291 291 285 286 283
227 227 231 233 235 238 241 244 247 248 249 252 255 256 258 259 261 265 270 274 278 282 286 288 292 294 293 293 295 295 295 295 290 287 290 291 292 293 291 288 289 290 292 291
230 231 235 235 236 239 242 245 248 248 248 251 254 256 258 259 261 266 272 277 281 285 285 284 286 288 286 288 289 287 288 289 288 288 289 291 291 292 293 291 295 301 303 297
233 236 238 239 241 242 245 247 247 246 248 252 255 256 259 261 265 268 273 279 281 282 283 281 279 276 278 280 281 283 285 285 286 288 288 288 288 290 289 290 294 299 304 301
237 239 241 241 242 243 245 247 247 248 249 251 254 256 258 259 262 267 272 275 278 280 281 276 270 267 268 273 277 279 282 282 282 284 286 286 287 289 291 292 294 297 299 299
238 240 242 244 244 243 246 246 247 248 250 251 252 255 256 260 262 263 271 275 276 277 276 270 263 261 265 270 276 279 281 281 281 282 285 287 287 287 289 292 294 296 297 297
239 241 243 244 245 244 243 244 246 249 250 251 253 254 255 257 261 262 267 271 271 271 271 266 257 258 262 269 275 279 280 280 280 280 282 284 285 286 288 290 291 292 294 294
239 241 242 244 245 245 245 245 245 247 249 249 251 252 253 257 258 259 264 266 267 269 268 262 260 256 259 267 272 276 279 281 280 280 281 282 286 288 289 288 288 289 292 293
237 239 240 242 245 244 244 245 246 247 248 248 250 250 253 255 253 255 259 264 264 264 265 263 261 259 264 269 274 278 279 280 280 281 283 283 285 285 287 289 289 289 290 291
237 238 241 243 244 243 243 243 245 246 245 247 249 249 252 253 251 253 256 260 262 260 261 263 261 262 268 271 274 278 282 281 279 281 282 283 284 285 286 287 288 289 290 291
236 238 241 242 241 241 240 241 244 244 244 246 247 246 248 249 252 253 253 256 259 258 258 259 261 266 270 273 275 278 280 281 281 282 283 284 285 285 286 286 287 289 290 291
236 237 239 237 237 238 238 240 242 243 244 245 247 248 248 249 250 250 251 251 254 255 255 257 261 264 267 270 273 276 278 280 281 282 283 284 285 286 286 286 287 289 290 292
234 234 234 233 233 235 236 238 241 242 243 244 245 246 247 246 244 244 247 249 250 251 252 255 258 262 266 268 271 274 277 279 280 281 282 283 284 285 286 287 287 289 291 293
232 232 231 230 231 232 234 238 240 241 242 242 243 243 241 240 241 243 245 246 246 248 251 253 257 261 264 268 271 273 275 277 279 281 282 284 284 285 286 288 290 291 292 294
230 227 227 227 228 231 234 237 240 240 240 240 238 236 236 239 241 241 241 244 247 249 251 254 258 262 266 270 271 273 275 277 279 281 281 282 284 286 287 289 290 292 294 296
222 222 222 223 227 231 233 235 235 235 235 235 235 235 235 237 239 239 243 248 250 251 252 256 259 262 267 270 272 273 275 277 279 280 281 283 286 287 289 290 292 295 297 298
218 218 218 221 224 225 227 230 229 231 231 230 227 225 228 233 239 241 247 251 253 254 255 258 261 263 267 270 271 273 275 277 278 279 281 284 286 287 289 291 294 296 297 298
213 213 215 219 221 222 224 225 226 227 226 224 225 228 232 236 239 243 249 251 251 253 256 261 265 266 266 269 271 274 275 276 278 280 282 284 286 288 290 293 295 297 298 299
206 207 212 217 216 217 221 221 221 222 223 223 225 230 233 235 238 241 245 247 250 253 257 261 263 265 267 270 273 275 276 277 279 282 283 285 287 288 291 295 297 298 300 301
204 206 210 211 210 212 214 214 216 218 221 224 227 231 234 235 238 241 243 246 250 254 259 262 264 265 268 271 273 276 278 279 281 283 285 287 290 291 294 296 298 300 301 302
205 204 202 202 203 206 209 212 215 219 222 225 228 231 234 236 238 241 244 249 251 254 258 261 264 267 270 272 275 278 281 283 284 285 286 289 291 293 295 296 298 300 301 302
200 200 198 198 200 204 208 213 217 220 224 226 228 231 234 237 239 241 244 247 251 256 259 262 266 269 273 274 276 279 281 283 284 287 289 291 293 296 297 298 299 301 302 304
197 198 198 200 202 205 209 214 218 219 221 223 226 230 233 235 238 241 244 250 254 257 261 264 268 271 274 276 278 280 282 283 286 289 291 293 296 299 301 302 303 304 306 308
197 198 200 201 203 204 208 211 213 215 217 222 227 231 234 238 243 245 248 252 256 260 262 266 270 274 277 279 280 282 284 287 289 291 294 296 297 299 301 303 305 306 307 309
198 199 201 203 205 207 208 209 210 213 219 226 230 234 238 241 244 247 251 255 259 263 267 270 273 276 279 282 285 288 289 291 293 293 294 296 298 300 302 303 305 306 307 308